This demonstration page uses our WeatherBlox Daily Observations layout. Learn more.

Left ArrowRight Arrow

38.83388, -104.82136

Hourly Observations for January 14, 2017

Temp ( °F °C ) Dew Point ( °F °C ) Humidity (%) Winds ( mph kmh ) Pressure ( in mb ) Visibility ( mi km ) Precip ( " mm )
12:58 am 00:58 Clear 31 -0.4 21 -6.1 66 66 WNW 6 9 29.99 1016 10 16 N/A
1:58 am 01:58 Mostly Clear 30 -1.2 22 -5.8 71 71 N 3 6 30.03 1017 10 16 N/A
2:58 am 02:58 Clear 33 0.3 21 -6.1 63 63 Calm 30.03 1017 10 16 N/A
3:58 am 03:58 Clear 32 -0.2 20 -6.4 63 63 NW 5 7 30.03 1017 10 16 N/A
4:58 am 04:58 Clear 33 0.3 20 -6.7 60 60 NE 5 7 30.05 1018 10 16 N/A
5:58 am 05:58 Mostly Clear 34 1.2 20 -6.8 56 56 NNW 7 11 30.03 1017 10 16 N/A
6:58 am 06:58 Mostly Cloudy 33 0.5 20 -6.7 59 59 Calm 30.05 1018 10 16 N/A
7:58 am 07:58 Cloudy 37 2.7 20 -6.7 50 50 Calm 30.04 1017 10 16 N/A
8:58 am 08:58 Cloudy 35 1.5 21 -6 58 58 Calm 30.07 1018 10 16 N/A
9:58 am 09:58 Mostly Cloudy 36 2.3 23 -4.9 59 59 ESE 6 9 30.09 1019 10 16 N/A
10:58 am 10:58 Mostly Cloudy 36 2.2 25 -3.8 65 65 Calm 30.07 1018 10 16 N/A
11:58 am 11:58 Mostly Sunny 38 3.5 25 -3.8 59 59 Calm 30.00 1016 10 16 N/A
12:58 pm 12:58 Sunny 43 6 24 -4.4 48 48 E 5 7 29.94 1014 10 16 N/A
1:58 pm 13:58 Sunny 43 6.2 24 -4.5 47 47 SE 12 19 29.93 1014 10 16 N/A
2:58 pm 14:58 Sunny 41 5.1 23 -5 48 48 SSE 10 17 29.92 1013 10 16 N/A
3:58 pm 15:58 Sunny 39 3.9 22 -5.7 50 50 S 10 17 29.95 1014 10 16 N/A
4:58 pm 16:58 Sunny 37 2.6 23 -5.2 57 57 S 5 7 29.95 1014 10 16 N/A
5:58 pm 17:58 Clear 35 1.7 24 -4.7 63 63 WNW 5 7 29.95 1014 10 16 N/A
6:58 pm 18:58 Clear 32 0.2 24 -4.7 70 70 Calm 29.99 1016 10 16 N/A
7:58 pm 19:58 Clear 33 0.4 24 -4.7 69 69 NW 3 6 29.96 1015 10 16 N/A
8:58 pm 20:58 Clear 33 0.8 23 -4.8 67 67 Calm 29.94 1014 10 16 N/A
9:58 pm 21:58 Partly Cloudy 36 2 23 -5.1 60 60 ESE 3 6 29.91 1013 10 16 N/A
10:58 pm 22:58 Clear 30 -1.2 23 -4.8 77 77 Calm 29.93 1014 10 16 N/A
11:58 pm 23:58 Mostly Cloudy 32 0.2 24 -4.4 72 72 Calm 29.88 1012 10 16 N/A

Powered by AerisWeather